Regional Weather Roundup
Issued by NWS Sterling, VA

Home | Current Version | Previous Version | Graphics & Text | Print | Product List | Glossary On
Versions: 1 2 3 4 5 6 7 8 9 10 11 12 13 14 15 16 17 18 19 20 21 22 23 24 25 26 27
000
ASUS41 KLWX 170311
RWRLWX

REGIONAL WEATHER ROUNDUP
NATIONAL WEATHER SERVICE BALTIMORE MD/WASHINGTON DC
1000 PM EST SAT DEC 16 2017

Note: "FAIR" indicates few or no clouds below 12,000 feet
with no significant weather and/or obstructions to visibility.
 TC=TEMPERATURE CELSIUS

 * =Non NWS site. Station does not report precipitation (e.g. rain,
    snow, etc.), thunder, or fog.

DCZ001-MDZ009-015-VAZ040>042-051-053>054-170400-
WASHINGTON METRO

CITY           SKY/WX    TMP DP  RH WIND       PRES   REMARKS
WASHINGTON NAT CLEAR     39  26  59 S5        30.19R
DULLES         CLEAR     28  23  81 SE5       30.17R
ANDREWS AFB    CLEAR     33  23  65 SW5       30.17R
FT BELVOIR     CLEAR     29  23  77 CALM      30.19R
QUANTICO       CLEAR     34  28  79 CALM      30.20R
COLLEGE PARK*  CLEAR     28  25  86 CALM      30.18R
LEESBURG*      CLEAR     30  27  86 CALM      30.18S
MANASSAS*      CLEAR     24  21  88 CALM      30.19R
GAITHERSBURG*  CLEAR     29  24  82 CALM      30.17R

$$

MDZ006>007-011-014-170400-
BALTIMORE METRO

CITY           SKY/WX    TMP DP  RH WIND       PRES   REMARKS
BWI AIRPORT    CLEAR     30  24  78 CALM      30.17R
MD SCIENCE CTR   N/A     39  26  59 MISG      30.17R
MARTIN STATE   CLEAR     30  28  93 CALM      30.20R
ANNAPOLIS      CLEAR     33  28  81 CALM      30.18R
FORT MEADE*    CLEAR     27  25  93 CALM      30.20S

$$

MDZ012-015-019>023-170400-
MARYLAND EASTERN SHORE

CITY           SKY/WX    TMP DP  RH WIND       PRES   REMARKS
OCEAN CITY     CLEAR     37  28  70 SW8       30.22R
SALISBURY      CLEAR     33  29  85 S5        30.21R
BAY BRIDGE AP* CLEAR     39  27  60 SW5       30.18S
CAMBRIDGE*       N/A     32  27  80 S3        30.20R

$$

MDZ017>025-170400-
SOUTHERN MARYLAND

CITY           SKY/WX    TMP DP  RH WIND       PRES   REMARKS
PATUXENT RIVER CLEAR     40  25  55 SW10      30.19R
ST INIGOES     CLEAR     40  28  62 S5        30.20R
LEONARDTOWN*   CLEAR     37  27  65 SW6         N/A

$$

MDZ003>005-170400-
NORTH CENTRAL MARYLAND

CITY           SKY/WX    TMP DP  RH WIND       PRES   REMARKS
FREDERICK*     CLEAR     28  23  80 CALM      30.19S
HAGERSTOWN APT CLEAR     36  23  59 CALM      30.14R
WESTMINSTER*   CLEAR     36  25  64 CALM      30.14S

$$

MDZ501>502-170400-
WESTERN MARYLAND

CITY           SKY/WX    TMP DP  RH WIND       PRES   REMARKS
OAKLAND*       CLEAR     32  23  69 W15G22    30.05R WCI  22
CUMBERLAND*    CLEAR     30  27  86 CALM      30.19R

$$

VAZ025>031-170400-
SHENANDOAH VALLEY

CITY           SKY/WX    TMP DP  RH WIND       PRES   REMARKS
WINCHESTER*    CLEAR     30  21  69 CALM      30.15R
FRONT ROYAL*   FAIR      30  23  74 CALM      30.14R
LURAY*         CLEAR     36  27  69 SW7       30.15R
NEW MARKET*    CLEAR     26  21  84 CALM      30.15R
STAUNTON*      CLEAR     35  22  59 CALM      30.18R
WAYNESBORO*    CLEAR     36  23  58 SW6       30.16S

$$

WVZ021-048>050-054>055-170400-
EASTERN WEST VIRGINIA PANHANDLE

CITY           SKY/WX    TMP DP  RH WIND       PRES   REMARKS
MARTINSBURG    CLEAR     29  21  72 W5        30.15R
PETERSBURG*    CLEAR     32  24  71 CALM      30.14R

$$

VAZ036>039-050-170400-
CENTRAL FOOTHILLS

CITY           SKY/WX    TMP DP  RH WIND       PRES   REMARKS
CHARLOTTESVILL CLEAR     41  25  53 SW8       30.16R
CULPEPER*      FAIR      29  22  74 CALM      30.18R
ORANGE*        CLEAR     32  25  74 CALM      30.17S
GORDONSVILLE*  CLEAR     28  23  84 W5        30.17S
WARRENTON*     CLEAR     28  20  74 CALM      30.17R

$$

VAZ055>057-170400-
NORTH AND CENTRAL PIEDMONT

CITY           SKY/WX    TMP DP  RH WIND       PRES   REMARKS
FREDERICKSBRG* CLEAR     35  26  70 CALM      30.18S
STAFFORD*      CLEAR     38  26  60 CALM      30.22S

$$

NCZ024-NYZ072-PAZ021-071-VAZ022-071-170400-
OTHER REGIONAL OBSERVATIONS

CITY           SKY/WX    TMP DP  RH WIND       PRES   REMARKS
NEW YORK CITY  CLOUDY    36  23  59 VRB5      30.20R
PHILADELPHIA   CLOUDY    38  28  67 SW5       30.19R
PITTSBURGH     PTCLDY    34  25  69 CALM      30.11S
ROANOKE        CLOUDY    38  24  57 NW8       30.20S
RICHMOND       CLEAR     37  24  59 S7        30.21R
RALEIGH        CLOUDY    35  25  66 CALM      30.26S

$$

ANZ530>537-170400-
MARINE OBSERVATIONS

STATION/POSITION TIME  TEMP    WIND        PRES
                       AIR SEA DIR/SP/G
                 (UTC) (F)     (DEG/KT/KT) (MB)
THOMAS PT LIGHT  0300   40 43  250/  4/  5   N/A
BALT KEY BRIDGE  0248   39     230/  1/  1 1022.0R
COVE POINT       0248   42     230/ 13/ 18 1022.8R
LEWISETTA        0248   41 39  230/  9/ 10 1022.6R
SOLOMONS ISLAND  0248   42 44  220/ 10/ 12 1022.1R
PINEY POINT      0248          240/  6/ 10   N/A

$$





USA.gov is the U.S. government's official web portal to all federal, state and local government web resources and services.